SCP
0 1 1 1 1 1 1 1 1 1 1 1 1 1 1 1 1 1 1 1 1 1 1 1 1 1 1 1 2 2 2 1 1 1 1 1 1 1 1 1 0 0 0
0 1 1 1 1 1 1 1 1 1 1 1 1 1 1 1 1 1 1 1 1 1 1 1 1 1 1 1 2 2 2 1 1 1 1 1 1 1 1 1 1 1 1
1 1 1 1 1 1 1 2 2 1 1 1 1 1 1 1 1 1 1 1 1 1 1 1 1 1 1 1 2 2 1 1 1 1 1 1 1 1 1 1 1 1 1
1 1 1 1 1 1 2 2 2 1 1 1 1 1 1 1 1 1 1 1 1 1 1 1 1 1 1 1 1 1 1 1 1 1 1 0 1 1 1 1 1 1 1
1 1 1 1 1 1 2 2 2 1 1 1 1 1 2 2 1 1 1 1 1 1 1 1 1 1 2 1 1 1 1 1 1 0 0 0 0 1 1 1 1 1 1
1 1 1 1 2 2 2 2 1 1 1 1 1 2 2 2 2 1 1 1 1 1 1 1 2 2 2 2 1 1 1 1 1 0 0 0 0 0 1 1 1 1 2
1 1 1 2 2 2 2 1 1 1 1 1 2 2 2 2 2 2 1 1 1 1 1 2 2 2 2 2 1 1 1 1 1 0 0 0 0 0 1 1 1 1 1
1 1 1 2 2 2 2 1 1 1 1 2 2 2 2 2 2 2 1 1 1 1 1 1 2 2 2 2 1 1 1 1 0 0 0 0 1 1 1 1 1 1 1
1 1 1 2 2 2 2 1 1 1 1 2 2 2 2 2 2 2 2 1 1 1 1 1 1 1 1 1 1 1 1 1 0 0 0 0 1 1 1 1 1 1 1
1 1 1 2 2 2 2 2 1 1 1 2 2 2 2 1 1 2 2 1 1 1 1 1 1 1 1 1 1 1 1 1 1 0 0 0 1 1 1 1 1 1 1
1 1 1 2 2 2 2 1 1 1 1 2 2 2 1 1 1 1 1 2 1 1 1 1 1 1 1 1 1 1 1 1 1 0 0 1 1 1 1 1 1 1 1
1 1 1 2 2 2 2 1 1 1 1 1 1 1 1 1 0 1 1 1 1 1 1 1 1 1 1 1 1 1 1 1 1 0 0 1 1 1 1 1 1 1 1
2 2 2 2 2 2 2 1 1 1 1 1 1 1 0 0 0 0 1 1 1 1 1 1 1 1 1 1 1 1 1 1 1 0 0 1 1 1 1 1 2 2 2
3 3 3 2 2 1 1 1 1 1 1 1 1 1 1 1 1 0 0 1 1 1 1 1 1 1 1 0 0 0 0 0 0 0 0 1 1 1 1 2 2 2 2
3 3 3 2 1 1 1 1 1 1 1 0 0 1 1 1 1 1 0 0 0 0 0 0 1 1 0 0 0 0 0 0 0 0 0 1 1 1 1 2 2 2 2
3 3 3 2 1 1 1 1 1 1 1 0 0 0 1 1 1 0 0 0 0 0 0 0 0 0 0 0 0 0 0 0 0 0 0 1 1 1 1 1 2 3 3
4 3 3 2 1 1 1 1 1 1 1 0 1 1 1 0 0 0 1 1 1 0 0 0 0 0 0 0 0 0 0 0 0 0 0 0 1 1 1 2 2 2 3
5 5 4 3 2 1 1 1 1 1 1 0 1 1 1 1 1 1 1 1 1 1 1 1 1 1 1 1 0 0 0 0 0 0 0 0 0 1 1 2 2 3 3
6 5 5 3 2 1 1 1 1 1 1 1 1 1 1 1 1 1 1 1 1 1 1 1 1 1 1 1 1 0 0 0 0 0 0 0 0 1 1 1 2 3 3
6 6 5 4 2 2 1 1 1 2 1 1 1 1 1 1 1 1 1 1 1 1 1 1 1 1 1 1 1 0 0 0 0 0 1 1 1 1 1 1 2 2 3
7 6 5 4 3 2 2 1 2 2 2 2 1 1 1 1 1 1 1 1 1 1 1 1 1 1 1 1 1 0 0 0 0 1 1 1 1 1 1 1 1 2 2
5 4 4 4 3 2 2 2 2 2 2 2 1 1 1 1 1 1 1 1 1 1 1 1 1 1 1 1 1 1 1 0 0 1 1 1 1 1 2 2 2 2 1
4 4 3 3 3 3 2 2 1 1 2 2 2 2 1 1 1 1 1 1 1 1 1 1 1 1 1 1 1 1 1 1 0 0 1 1 1 1 1 2 2 1 1
6 5 4 4 4 4 3 2 2 2 2 1 1 1 1 1 1 1 1 1 1 1 1 1 1 1 1 2 2 2 1 1 1 0 0 1 1 1 1 1 1 1 1
6 7 6 5 5 5 4 3 2 2 2 1 1 1 1 1 1 1 1 1 1 1 1 1 1 1 1 2 2 2 1 1 1 1 1 1 1 1 1 1 1 1 0
5 6 6 6 6 6 5 4 3 2 2 1 1 1 1 1 1 1 1 2 2 1 1 1 1 1 1 1 1 1 1 1 1 1 1 1 1 1 1 0 0 0 0
Wind_Speed
4 5 10 10 10 9 9 10 10 9 9 10 10 10 10 11 12 13 13 13 12 11 11 11 10 10 10 10 9 9 9 9 9 9 9 9 8 7 7 8 7 5 7
8 7 11 10 10 10 9 10 9 9 9 10 10 10 11 11 13 14 13 12 11 11 11 11 10 10 9 9 8 8 8 8 8 9 9 8 7 7 7 7 6 4 7
8 8 9 10 11 10 10 10 9 9 9 10 10 11 11 12 13 13 13 11 11 11 11 10 10 9 9 8 7 7 7 7 7 8 7 4 4 7 7 7 7 6 6
8 7 8 11 11 10 10 9 9 9 9 9 9 10 11 12 12 12 12 11 11 11 10 10 9 9 8 8 7 6 6 6 6 6 3 3 3 7 7 7 7 6 6
7 6 8 12 11 10 9 9 9 8 9 9 9 10 10 11 12 12 11 11 11 11 10 10 9 8 8 7 6 5 5 4 5 4 3 2 2 6 7 7 6 6 6
7 6 8 11 10 9 8 8 8 8 8 9 9 9 10 11 11 12 11 11 10 10 10 9 8 8 7 6 5 5 4 4 4 2 3 3 3 6 6 6 6 5 5
7 6 7 10 10 9 8 8 8 8 8 9 9 9 9 10 10 11 11 10 10 10 9 9 8 7 6 5 4 4 3 4 3 3 2 2 3 6 7 6 5 5 5
8 6 6 9 9 8 8 8 8 8 9 9 9 9 9 9 10 10 10 9 9 9 9 8 8 7 6 5 5 4 3 3 3 2 2 2 5 7 7 6 6 5 5
7 6 4 5 6 7 7 7 8 8 9 9 9 9 9 9 9 9 9 9 9 9 8 8 7 6 6 5 5 4 4 3 1 1 3 2 5 6 6 5 5 6 5
6 5 4 3 3 3 3 6 7 8 9 9 9 8 8 8 8 8 8 8 8 8 8 7 7 6 5 5 4 4 4 2 1 1 1 3 6 7 6 5 5 6 6
5 4 4 4 3 2 3 4 5 6 7 7 6 7 6 3 3 4 6 8 8 7 7 6 6 6 5 5 5 4 2 1 2 2 2 5 7 7 7 6 6 6 6
5 4 4 4 4 3 3 2 2 2 3 2 2 3 2 2 2 4 5 7 7 6 6 6 5 5 3 2 3 3 1 2 2 2 3 6 7 8 7 7 6 6 6
6 5 5 4 4 3 2 3 1 1 2 2 2 3 2 2 2 2 2 3 3 4 3 3 3 2 2 2 2 2 2 2 2 2 3 7 8 8 7 7 7 7 7
6 6 5 5 4 3 3 2 2 2 2 2 2 3 3 2 2 2 2 2 1 1 2 1 1 2 2 3 3 3 3 2 2 2 3 7 8 8 8 8 8 7 7
6 5 5 5 5 4 3 2 3 2 3 3 2 2 3 3 2 2 2 2 2 1 2 2 1 2 2 3 3 3 3 4 3 3 3 7 8 9 9 8 8 8 7
7 6 5 5 5 5 4 3 3 3 3 3 2 3 4 3 2 2 2 2 2 2 2 2 2 2 2 2 3 3 3 4 4 4 3 4 8 8 8 8 8 8 7
8 7 6 5 5 5 4 3 3 3 3 3 3 3 3 3 3 2 2 1 1 1 2 1 1 1 1 1 2 2 2 3 3 4 3 3 4 7 8 8 8 8 8
8 7 6 6 6 4 3 3 2 2 3 3 3 2 3 3 3 3 2 1 1 1 2 2 1 1 1 1 1 1 1 1 3 3 3 3 3 3 5 8 9 8 8
9 8 7 6 6 5 4 3 2 3 3 2 2 2 3 3 3 3 2 2 2 2 1 1 1 1 1 0 1 1 1 1 2 2 2 3 3 3 3 6 9 9 8
9 7 7 5 5 5 3 2 2 2 2 2 2 2 3 3 3 3 2 2 2 2 1 1 1 1 1 1 1 0 1 1 1 2 2 2 2 4 4 4 3 5 8
8 7 7 6 5 4 3 3 2 2 1 1 2 3 3 3 3 3 2 1 2 2 2 2 2 1 1 1 1 1 2 1 1 1 1 0 1 2 2 2 1 1 2
9 8 7 6 6 5 3 3 2 2 2 2 2 2 3 3 3 3 3 2 2 2 2 2 2 1 1 1 2 1 2 3 3 1 0 1 1 0 0 1 1 2 1
10 9 8 7 6 5 4 3 2 2 1 1 1 1 2 3 3 2 3 2 2 2 2 2 2 3 2 1 1 3 2 2 2 3 2 1 1 0 0 0 1 1 2
10 9 8 7 6 5 5 5 4 3 3 3 2 2 2 3 3 3 3 3 3 2 2 3 3 2 3 1 1 1 2 3 2 2 3 2 1 1 1 1 0 0 2
10 9 8 7 6 6 5 6 5 4 3 2 1 1 2 2 2 3 3 3 3 2 3 3 2 2 3 3 2 1 0 0 1 2 2 3 2 2 1 0 0 0 1
9 8 8 8 6 6 6 6 6 5 4 3 2 2 2 1 2 2 3 3 3 3 3 3 3 3 2 2 2 2 2 1 1 2 2 2 2 2 1 0 0 1 1
Wind_Direction
164 170 153 144 135 132 129 125 119 114 114 116 118 121 121 127 133 135 135 136 138 139 140 140 144 146 146 145 143 144 141 139 139 140 135 128 126 125 125 128 125 121 126
159 165 155 146 138 135 131 126 121 118 116 118 119 121 122 126 131 134 135 137 139 139 139 142 144 146 146 147 142 142 143 143 142 140 135 131 131 128 129 134 136 136 136
150 160 156 147 142 138 133 129 123 119 119 120 122 124 125 125 128 131 133 135 137 138 138 140 142 145 147 143 140 141 143 142 146 143 135 129 134 135 137 144 144 141 144
149 155 153 146 143 141 137 133 128 126 125 125 126 128 129 128 129 131 132 134 133 133 136 138 138 140 142 142 140 141 146 146 146 148 139 145 150 145 145 144 148 151 153
144 150 153 147 144 141 138 135 135 135 132 131 130 132 135 134 134 133 134 135 134 136 138 140 141 142 145 148 146 146 151 153 148 149 144 149 154 153 153 155 158 160 165
142 149 153 148 145 142 141 142 142 141 139 136 135 136 138 139 140 139 140 141 140 141 142 144 145 148 149 151 150 149 148 145 137 132 138 149 160 165 163 165 166 168 175
139 144 152 149 146 145 145 148 149 149 145 143 141 140 139 141 144 146 146 147 146 145 145 145 147 148 151 150 148 142 137 131 127 128 149 167 173 170 172 172 168 170 174
138 140 147 150 146 147 148 151 154 153 153 149 147 144 143 144 147 151 151 152 151 151 150 152 154 156 154 154 155 150 141 131 128 144 164 178 176 174 175 172 173 171 176
133 133 133 147 149 150 150 153 154 154 155 153 152 150 148 148 150 154 154 156 158 159 159 161 164 165 162 163 167 171 170 151 121 147 165 174 178 180 179 174 177 177 181
124 132 136 141 143 152 159 159 154 155 153 153 151 150 152 151 152 155 159 162 165 165 166 168 169 169 170 172 178 183 180 160 174 187 180 184 182 179 179 183 183 184 186
130 139 147 148 150 151 163 161 154 152 151 149 146 146 148 150 150 156 167 170 171 174 178 180 177 177 180 180 182 178 172 161 167 192 194 185 184 183 186 191 189 190 194
150 158 157 161 163 160 162 136 131 143 136 134 131 138 141 147 158 163 176 181 178 180 183 188 188 187 181 166 179 177 163 181 185 198 201 196 197 196 196 198 197 199 202
160 160 160 161 159 157 150 140 138 136 132 135 145 147 144 142 150 161 161 179 183 187 185 184 179 181 164 174 189 176 179 195 211 212 206 198 201 204 204 203 204 207 212
152 164 164 160 154 158 147 147 150 150 159 159 161 154 144 146 148 155 154 168 173 175 170 164 161 177 171 182 187 187 187 195 205 202 201 199 205 208 211 209 211 215 217
151 159 164 157 157 157 148 154 150 160 163 162 162 161 155 152 151 152 157 156 171 161 158 161 175 175 176 192 197 195 198 200 203 201 206 203 210 212 213 213 216 218 217
154 157 159 152 151 141 144 153 155 162 160 155 160 162 151 152 151 148 157 164 180 180 175 171 174 172 188 188 197 204 205 201 200 203 207 213 215 215 217 218 220 220 221
157 155 156 151 142 138 142 147 140 150 155 159 165 162 152 151 150 151 155 166 185 171 157 148 156 153 164 178 193 196 201 207 201 206 207 212 221 225 225 226 231 232 229
153 154 159 153 143 143 144 139 134 140 152 158 155 158 162 159 152 146 153 172 169 141 141 147 151 142 170 170 187 209 206 199 208 206 203 209 219 228 228 226 230 233 232
158 158 157 150 150 152 148 139 132 126 137 149 152 158 168 162 158 151 160 169 145 132 148 170 149 154 161 197 219 215 222 209 216 215 211 216 220 226 230 232 231 232 232
157 156 155 150 154 151 139 126 112 108 125 138 149 160 162 157 153 148 156 161 151 141 152 156 159 163 174 193 215 260 251 242 229 222 227 226 222 225 226 230 226 230 229
153 153 155 152 161 151 144 147 143 159 159 145 172 171 166 164 156 147 162 164 160 161 175 173 158 152 196 150 88 352 334 310 274 250 231 229 260 250 233 215 207 210 225
162 161 160 161 166 167 167 164 161 160 166 166 177 178 179 171 170 170 171 177 173 164 162 164 160 154 210 142 138 113 351 340 326 299 260 198 241 284 296 226 204 213 211
165 167 169 169 167 169 158 134 115 85 66 92 171 190 199 188 188 183 178 174 170 168 181 188 174 159 182 234 159 143 152 233 300 317 305 309 308 330 288 225 149 204 181
174 169 167 167 167 167 158 149 149 157 175 197 195 201 211 202 201 195 180 181 178 179 185 197 184 172 161 193 246 215 178 164 158 303 317 315 295 269 274 254 130 192 183
171 168 170 168 171 170 164 164 162 172 186 188 174 195 217 227 219 206 188 186 188 195 199 203 193 184 176 180 189 197 179 122 146 163 277 307 318 296 279 247 91 118 209
167 168 170 168 178 179 174 173 172 177 180 174 186 197 212 231 240 233 215 203 201 198 201 207 202 196 197 188 187 177 168 171 200 174 211 265 287 294 300 276 160 179 200